Manhattan, KS

6:47 AM CDT on May 25, 2018 (GMT -0500)
Manhattan Regional

Weather History for KMHK - January, 2013

Change the Weather History Date:

Monday, January 28, 2013

  Actual Average Record
Temperature  
Mean Temperature 55 °F 30 °F  
Max Temperature 77 °F 42 °F 77 °F (2013)
Min Temperature 33 °F 18 °F -6 °F (1997)
Degree Days  
Heating Degree Days 10 35  
Month to date heating degree days 896 1021  
Since 1 July heating degree days 2817 3162  
Cooling Degree Days 0 0  
Month to date cooling degree days 0 0  
Year to date cooling degree days 0 0  
Growing Degree Days 5 (Base 50)    
Moisture  
Dew Point 44 °F    
Average Humidity 66    
Maximum Humidity 100    
Minimum Humidity 31    
Precipitation  
Precipitation 0.00 in 0.04 in 0.29 in (2001)
Month to date precipitation 0.38 0.53  
Year to date precipitation 0.38 0.53  
Sea Level Pressure  
Sea Level Pressure 29.74 in    
Wind  
Wind Speed 11 mph (South)    
Max Wind Speed 28 mph    
Max Gust Speed 37 mph    
Visibility 7 miles    
Events      
T = Trace of Precipitation, MM = Missing Value Source: NWS Daily Summary

Daily Weather History Graph

Daily Weather History Graph

Search for Another Location

Airport or City:

Astronomy

Jan. 28, 2013 Rise Set
Actual Time 7:36 AM CST 5:43 PM CST
Civil Twilight 7:08 AM CST 6:11 PM CST
Nautical Twilight 6:35 AM CST 6:43 PM CST
Astronomical Twilight 6:04 AM CST 7:15 PM CST
Moon 7:38 PM CST (1/28) 8:03 AM CST (1/28)
Length of Visible Light 11h 03m
Length of Day
10h 06m
Full, 98% of the Moon is Illuminated
Jan 28
Full
Feb 3
Last Quarter
Feb 10
New
Feb 17
First Quarter
Feb 25
Full

Hourly Weather History & Observations

Time (CST) Temp. Windchill Dew Point Humidity Pressure Visibility Wind Dir Wind Speed Gust Speed Precip Events Conditions
12:52 AM 37.9 °F - 35.1 °F 89% 29.85 in 2.5 mi Calm Calm - N/A   Clear
1:45 AM 35.6 °F - 35.6 °F 100% 29.83 in 1.5 mi Calm Calm - N/A   Clear
1:52 AM 35.1 °F - 34.0 °F 96% 29.85 in 1.5 mi Calm Calm - N/A   Clear
2:21 AM 35.6 °F - 33.8 °F 93% 29.83 in 1.2 mi Calm Calm - N/A   Scattered Clouds
2:24 AM 35.6 °F - 33.8 °F 93% 29.83 in 0.8 mi Calm Calm - N/A   Mostly Cloudy
2:39 AM 37.4 °F - 35.6 °F 93% 29.83 in 1.0 mi Calm Calm - N/A   Overcast
2:47 AM 37.4 °F - 37.4 °F 100% 29.82 in 2.5 mi Calm Calm - N/A   Overcast
2:52 AM 37.9 °F - 37.0 °F 97% 29.83 in 2.5 mi Calm Calm - N/A   Overcast
3:06 AM 39.2 °F - 37.4 °F 93% 29.82 in 3.0 mi Calm Calm - N/A   Overcast
3:52 AM 41.0 °F 39.0 °F 39.0 °F 93% 29.82 in 4.0 mi NNE 3.5 mph - N/A   Overcast
4:47 AM 42.8 °F 40.1 °F 39.2 °F 87% 29.81 in 5.0 mi NE 4.6 mph - N/A   Overcast
4:52 AM 43.0 °F 40.3 °F 39.9 °F 89% 29.82 in 5.0 mi NE 4.6 mph - N/A   Overcast
5:52 AM 44.1 °F 40.8 °F 39.9 °F 85% 29.82 in 6.0 mi NNE 5.8 mph - N/A   Overcast
6:52 AM 45.0 °F 42.6 °F 41.0 °F 86% 29.81 in 7.0 mi ENE 4.6 mph - N/A   Overcast
7:46 AM 44.6 °F 43.1 °F 41.0 °F 87% 29.80 in 7.0 mi NNE 3.5 mph - N/A   Overcast
7:52 AM 45.0 °F 43.5 °F 41.0 °F 86% 29.81 in 7.0 mi NNE 3.5 mph - N/A   Overcast
8:52 AM 46.9 °F - 43.0 °F 86% 29.81 in 6.0 mi Calm Calm - N/A   Overcast
9:38 AM 51.8 °F - 44.6 °F 76% 29.80 in 7.0 mi Calm Calm - N/A   Mostly Cloudy
9:50 AM 53.6 °F - 46.4 °F 77% 29.79 in 7.0 mi Calm Calm - N/A   Scattered Clouds
9:52 AM 54.0 °F - 46.9 °F 77% 29.79 in 7.0 mi Calm Calm - N/A   Partly Cloudy
10:52 AM 61.0 °F - 46.0 °F 58% 29.79 in 10.0 mi SSW 13.8 mph 18.4 mph N/A   Clear
11:52 AM 66.9 °F - 44.1 °F 44% 29.75 in 10.0 mi SSW 15.0 mph - N/A   Clear
12:52 PM 71.1 °F - 45.0 °F 39% 29.70 in 10.0 mi SSW 13.8 mph 21.9 mph N/A   Clear
1:52 PM 73.9 °F - 44.1 °F 34% 29.66 in 10.0 mi SSW 19.6 mph 26.5 mph N/A   Clear
2:52 PM 75.9 °F - 43.0 °F 31% 29.64 in 10.0 mi SSW 25.3 mph 36.8 mph N/A   Clear
3:52 PM 75.2 °F - 44.6 °F 34% 29.62 in 10.0 mi South 17.3 mph 32.2 mph N/A   Clear
4:52 PM 73.0 °F - 55.0 °F 53% 29.61 in 10.0 mi South 18.4 mph 29.9 mph N/A   Partly Cloudy
5:52 PM 71.1 °F - 55.9 °F 59% 29.60 in 10.0 mi South 13.8 mph 25.3 mph N/A   Clear
6:52 PM 70.0 °F - 55.9 °F 61% 29.60 in 10.0 mi South 16.1 mph 25.3 mph N/A   Clear
7:52 PM 69.1 °F - 57.0 °F 65% 29.60 in 10.0 mi SSW 17.3 mph 26.5 mph N/A   Clear
8:52 PM 68.0 °F - 55.9 °F 65% 29.60 in 10.0 mi South 15.0 mph 26.5 mph N/A   Clear
9:52 PM 68.0 °F - 57.0 °F 68% 29.59 in 10.0 mi SSW 16.1 mph 21.9 mph N/A   Clear
10:52 PM 68.0 °F - 57.9 °F 70% 29.57 in 10.0 mi SSW 11.5 mph 23.0 mph N/A   Partly Cloudy
11:52 PM 66.9 °F - 59.0 °F 76% 29.56 in 10.0 mi SSW 21.9 mph 28.8 mph N/A   Partly Cloudy